Location: La Chapelle
(48.3135°N, 1.3085°W)
Time: 03:50:32
(UTC+00:00)

Cosmos 1862 Rocket - Pass Details

Date: 03 March 2021
Orbit: 603 x 634 km, 82.5° (Epoch: 17 April)

Event Time Altitude Azimuth Distance (km) Brightness Sun altitude
Rises 18:58:49 0° 347° (NNW) 2,945 7.3 -11.8°
Reaches altitude 10° 19:01:05 10° 345° (NNW) 2,032 6.5 -12.2°
Maximum altitude 19:05:33 65° 265° (W) 701 4.1 -12.9°
Drops below altitude 10° 19:09:58 10° 183° (S) 2,009 6.2 -13.6°
Sets 19:12:12 0° 180° (S) 2,909 7.0 -14.0°
